Simultaneous Nadir Overpasses (SNOs) Predictions

Prediction of SNOs between NOAA-20 and AQUA Satellite Orbit:

Table of predicted SNOs for the next 14.0 days since TLE Epoch: 9/28/2024
Index Date (NOAA-20) Time (NOAA-20) Lat,Lon (NOAA-20) SZA (NOAA-20 ) Date (AQUA) Time (AQUA) Lat,Lon (AQUA) SZA (AQUA ) Distance(km) Time Diff (sec)
1 09/28/2024 14:00:03 -81.31, 77.05 90.57 09/28/2024 14:00:11 -81.32, 77.19 90.59 2.36 8
2 09/28/2024 14:50:09 81.17,-100.42 87.34 09/28/2024 14:48:56 81.69,-100.56 87.69 58.45 73
3 10/01/2024 01:12:33 -81.31, -91.15 89.64 10/01/2024 01:13:04 -81.31, -91.05 89.67 1.65 31
4 10/01/2024 02:03:16 81.32, 76.91 90.28 10/01/2024 02:02:24 81.32, 76.82 90.32 1.61 52
5 10/03/2024 12:25:02 -81.32, 100.93 88.75 10/03/2024 12:25:54 -81.32, 100.96 88.78 0.72 52
6 10/03/2024 13:15:46 81.32, -91.40 91.22 10/03/2024 13:15:14 81.33, -91.22 91.22 3.11 32
7 10/05/2024 23:37:31 -81.32, -67.11 87.85 10/05/2024 23:38:42 -81.32, -67.17 87.88 1.13 71
8 10/06/2024 00:28:15 81.32, 100.57 92.12 10/06/2024 00:28:02 81.33, 100.60 92.13 0.90 13
9 10/08/2024 11:40:44 81.32, -67.59 93.03 10/08/2024 11:40:48 81.32, -67.72 93.05 2.16 4
10 10/10/2024 22:53:12 81.32, 124.14 93.96 10/10/2024 22:53:30 81.32, 124.21 93.93 1.31 18



Historial Predications of SNOs between NOAA-20 and AQUA
